Time,TemperatureF,DewpointF,PressureIn,WindDirection,WindDirectionDegrees,WindSpeedMPH,WindSpeedGustMPH,Humidity,HourlyPrecipIn,Conditions,Clouds,dailyrainin,SoftwareType,DateUTC
2013-06-22 00:00:00,84.6,67.2,29.91,SSE,167,11.0,11.0,56,0.00,,,0.00,VWS V15.00,2013-06-22 05:00:00,
2013-06-22 00:02:00,82.2,66.9,29.92,SSW,192,0.0,4.0,60,0.00,,,0.00,VWS V13.01,2013-06-22 05:02:00,
2013-06-22 00:07:00,81.9,66.7,29.92,SE,137,9.0,12.0,60,0.00,,,0.00,VWS V13.01,2013-06-22 05:07:00,
2013-06-22 00:10:00,84.2,67.8,29.91,SE,142,0.0,16.0,58,0.00,,,0.00,VWS V15.00,2013-06-22 05:10:00,
2013-06-22 00:12:00,81.7,66.5,29.92,South,190,0.0,8.0,60,0.00,,,0.00,VWS V13.01,2013-06-22 05:12:00,
2013-06-22 00:17:00,81.6,66.4,29.92,SSE,164,9.0,12.0,60,0.00,,,0.00,VWS V13.01,2013-06-22 05:17:00,
2013-06-22 00:20:00,83.8,68.0,29.91,SSE,153,1.0,11.0,59,0.00,,,0.00,VWS V15.00,2013-06-22 05:20:00,
2013-06-22 00:22:00,81.4,66.7,29.92,SSE,159,0.0,9.0,61,0.00,,,0.00,VWS V13.01,2013-06-22 05:22:00,
2013-06-22 00:27:00,81.2,66.5,29.92,SSE,167,0.0,12.0,61,0.00,,,0.00,VWS V13.01,2013-06-22 05:27:00,
2013-06-22 00:30:00,83.4,67.1,29.92,SSW,194,0.0,14.0,58,0.00,,,0.00,VWS V15.00,2013-06-22 05:30:00,
2013-06-22 00:32:00,81.0,66.8,29.92,SSW,207,8.0,13.0,62,0.00,,,0.00,VWS V13.01,2013-06-22 05:32:00,
2013-06-22 00:37:00,80.8,67.0,29.92,SE,140,0.0,16.0,63,0.00,,,0.00,VWS V13.01,2013-06-22 05:37:00,
2013-06-22 00:40:00,83.0,66.7,29.92,South,171,0.0,13.0,58,0.00,,,0.00,VWS V15.00,2013-06-22 05:40:00,
2013-06-22 00:42:00,80.5,67.2,29.92,SSE,155,4.0,9.0,64,0.00,,,0.00,VWS V13.01,2013-06-22 05:42:00,
2013-06-22 00:47:00,80.3,67.5,29.92,South,187,9.0,18.0,65,0.00,,,0.00,VWS V13.01,2013-06-22 05:47:00,
2013-06-22 00:50:00,82.7,66.9,29.92,SSE,157,0.0,12.0,59,0.00,,,0.00,VWS V15.00,2013-06-22 05:50:00,
2013-06-22 00:53:00,80.1,68.2,29.92,South,190,0.0,11.0,67,0.00,,,0.00,VWS V13.01,2013-06-22 05:53:00,
2013-06-22 00:58:00,79.9,68.4,29.92,SSE,157,0.0,15.0,68,0.00,,,0.00,VWS V13.01,2013-06-22 05:58:00,
2013-06-22 01:00:00,82.3,67.0,29.92,SW,215,0.0,13.0,60,0.00,,,0.00,VWS V15.00,2013-06-22 06:00:00,
2013-06-22 01:03:00,79.7,68.6,29.92,SSE,156,0.0,9.0,69,0.00,,,0.00,VWS V13.01,2013-06-22 06:03:00,
2013-06-22 01:08:00,79.5,69.3,29.92,South,186,11.0,16.0,71,0.00,,,0.00,VWS V13.01,2013-06-22 06:08:00,
2013-06-22 01:10:00,81.8,66.6,29.92,SSE,148,0.0,14.0,60,0.00,,,0.00,VWS V15.00,2013-06-22 06:10:00,
2013-06-22 01:13:00,79.3,69.5,29.92,SSE,157,7.0,11.0,72,0.00,,,0.00,VWS V13.01,2013-06-22 06:13:00,
2013-06-22 01:18:00,79.1,69.7,29.91,SSE,153,0.0,11.0,73,0.00,,,0.00,VWS V13.01,2013-06-22 06:18:00,
2013-06-22 01:20:00,81.4,66.7,29.92,SSE,152,7.0,12.0,61,0.00,,,0.00,VWS V15.00,2013-06-22 06:20:00,
2013-06-22 01:23:00,78.9,69.9,29.91,SE,145,4.0,13.0,74,0.00,,,0.00,VWS V13.01,2013-06-22 06:23:00,
2013-06-22 01:28:00,78.7,70.1,29.91,SSE,164,6.0,13.0,75,0.00,,,0.00,VWS V13.01,2013-06-22 06:28:00,
2013-06-22 01:30:00,81.0,66.3,29.92,SSE,156,5.0,13.0,61,0.00,,,0.00,VWS V15.00,2013-06-22 06:30:00,
2013-06-22 01:33:00,78.7,70.1,29.91,South,182,0.0,16.0,75,0.00,,,0.00,VWS V13.01,2013-06-22 06:33:00,
2013-06-22 01:38:00,78.6,70.4,29.91,SE,141,0.0,16.0,76,0.00,,,0.00,VWS V13.01,2013-06-22 06:38:00,
2013-06-22 01:40:00,80.6,67.3,29.92,South,189,4.0,16.0,64,0.00,,,0.00,VWS V15.00,2013-06-22 06:40:00,
2013-06-22 01:43:00,78.5,70.7,29.91,South,187,0.0,11.0,77,0.00,,,0.00,VWS V13.01,2013-06-22 06:43:00,
2013-06-22 01:48:00,78.3,70.9,29.92,SE,142,0.0,11.0,78,0.00,,,0.00,VWS V13.01,2013-06-22 06:48:00,
2013-06-22 01:50:00,80.2,68.3,29.92,ESE,121,7.0,18.0,67,0.00,,,0.00,VWS V15.00,2013-06-22 06:50:00,
2013-06-22 01:53:00,78.2,70.8,29.92,SSW,195,0.0,7.0,78,0.00,,,0.00,VWS V13.01,2013-06-22 06:53:00,
2013-06-22 01:58:00,78.1,71.1,29.92,SSE,161,0.0,7.0,79,0.00,,,0.00,VWS V13.01,2013-06-22 06:58:00,
2013-06-22 02:00:00,79.8,68.7,29.92,SE,144,5.0,15.0,69,0.00,,,0.00,VWS V15.00,2013-06-22 07:00:00,
2013-06-22 02:03:00,77.9,70.9,29.91,SSE,162,0.0,10.0,79,0.00,,,0.00,VWS V13.01,2013-06-22 07:03:00,
2013-06-22 02:08:00,77.8,71.1,29.91,South,178,0.0,15.0,80,0.00,,,0.00,VWS V13.01,2013-06-22 07:08:00,
2013-06-22 02:10:00,79.4,69.2,29.92,SSE,153,1.0,16.0,71,0.00,,,0.00,VWS V15.00,2013-06-22 07:10:00,
2013-06-22 02:13:00,77.8,71.1,29.91,SSE,157,4.0,8.0,80,0.00,,,0.00,VWS V13.01,2013-06-22 07:13:00,
2013-06-22 02:18:00,77.7,71.4,29.91,SSE,148,0.0,12.0,81,0.00,,,0.00,VWS V13.01,2013-06-22 07:18:00,
2013-06-22 02:20:00,79.0,70.0,29.91,SSE,152,12.0,19.0,74,0.00,,,0.00,VWS V15.00,2013-06-22 07:20:00,
2013-06-22 02:23:00,77.6,71.3,29.91,SSW,198,0.0,16.0,81,0.00,,,0.00,VWS V13.01,2013-06-22 07:23:00,
2013-06-22 02:28:00,77.4,71.1,29.91,SE,144,0.0,16.0,81,0.00,,,0.00,VWS V13.01,2013-06-22 07:28:00,
2013-06-22 02:30:00,78.7,70.1,29.91,SSW,194,0.0,13.0,75,0.00,,,0.00,VWS V15.00,2013-06-22 07:30:00,
2013-06-22 02:33:00,77.4,71.1,29.91,SSW,193,0.0,10.0,81,0.00,,,0.00,VWS V13.01,2013-06-22 07:33:00,
2013-06-22 02:38:00,77.3,71.0,29.91,SSE,159,10.0,11.0,81,0.00,,,0.00,VWS V13.01,2013-06-22 07:38:00,
2013-06-22 02:40:00,78.5,70.7,29.91,South,183,0.0,16.0,77,0.00,,,0.00,VWS V15.00,2013-06-22 07:40:00,
2013-06-22 02:43:00,77.3,71.0,29.91,SSE,168,0.0,4.0,81,0.00,,,0.00,VWS V13.01,2013-06-22 07:43:00,
2013-06-22 02:48:00,77.2,70.9,29.90,South,175,0.0,11.0,81,0.00,,,0.00,VWS V13.01,2013-06-22 07:48:00,
2013-06-22 02:50:00,78.2,70.8,29.92,South,172,0.0,13.0,78,0.00,,,0.00,VWS V15.00,2013-06-22 07:50:00,
2013-06-22 02:53:00,77.2,71.3,29.90,SE,131,0.0,11.0,82,0.00,,,0.00,VWS V13.01,2013-06-22 07:53:00,
2013-06-22 02:58:00,77.1,71.2,29.90,SSE,165,0.0,11.0,82,0.00,,,0.00,VWS V13.01,2013-06-22 07:58:00,
2013-06-22 03:00:00,78.0,71.0,29.91,SSE,163,7.0,12.0,79,0.00,,,0.00,VWS V15.00,2013-06-22 08:00:00,
2013-06-22 03:03:00,77.1,71.2,29.89,SSW,197,0.0,8.0,82,0.00,,,0.00,VWS V13.01,2013-06-22 08:03:00,
2013-06-22 03:08:00,77.1,71.2,29.89,SSW,197,0.0,9.0,82,0.00,,,0.00,VWS V13.01,2013-06-22 08:08:00,
2013-06-22 03:10:00,77.8,71.1,29.91,SSE,160,2.0,15.0,80,0.00,,,0.00,VWS V15.00,2013-06-22 08:10:00,
2013-06-22 03:13:00,77.1,71.2,29.89,SSW,200,0.0,12.0,82,0.00,,,0.00,VWS V13.01,2013-06-22 08:13:00,
2013-06-22 03:18:00,77.1,71.2,29.89,SSW,192,0.0,13.0,82,0.00,,,0.00,VWS V13.01,2013-06-22 08:18:00,
2013-06-22 03:20:00,77.6,71.3,29.91,SSE,159,3.0,12.0,81,0.00,,,0.00,VWS V15.00,2013-06-22 08:20:00,
2013-06-22 03:23:00,77.1,71.2,29.89,SSW,199,0.0,7.0,82,0.00,,,0.00,VWS V13.01,2013-06-22 08:23:00,
2013-06-22 03:28:00,77.1,71.2,29.89,SSE,161,0.0,10.0,82,0.00,,,0.00,VWS V13.01,2013-06-22 08:28:00,
2013-06-22 03:30:00,77.4,71.1,29.91,SSW,203,7.0,16.0,81,0.00,,,0.00,VWS V15.00,2013-06-22 08:30:00,
2013-06-22 03:33:00,77.2,70.9,29.90,SSW,200,0.0,12.0,81,0.00,,,0.00,VWS V13.01,2013-06-22 08:33:00,
2013-06-22 03:38:00,77.1,70.8,29.90,SSW,195,7.0,14.0,81,0.00,,,0.00,VWS V13.01,2013-06-22 08:38:00,
2013-06-22 03:40:00,77.3,71.0,29.91,SE,144,0.0,12.0,81,0.00,,,0.00,VWS V15.00,2013-06-22 08:40:00,
2013-06-22 03:43:00,77.1,70.8,29.90,SW,214,0.0,13.0,81,0.00,,,0.00,VWS V13.01,2013-06-22 08:43:00,
2013-06-22 03:48:00,77.1,70.8,29.89,SSW,213,8.0,13.0,81,0.00,,,0.00,VWS V13.01,2013-06-22 08:48:00,
2013-06-22 03:50:00,77.2,70.9,29.90,SSE,160,11.0,11.0,81,0.00,,,0.00,VWS V15.00,2013-06-22 08:50:00,
2013-06-22 03:53:00,77.1,70.8,29.89,SSW,196,10.0,17.0,81,0.00,,,0.00,VWS V13.01,2013-06-22 08:53:00,
2013-06-22 03:58:00,77.1,70.8,29.89,SSW,209,8.0,17.0,81,0.00,,,0.00,VWS V13.01,2013-06-22 08:58:00,
2013-06-22 04:00:00,77.1,71.2,29.89,SSE,150,8.0,11.0,82,0.00,,,0.00,VWS V15.00,2013-06-22 09:00:00,
2013-06-22 04:03:00,77.1,70.8,29.89,WSW,245,8.0,18.0,81,0.00,,,0.00,VWS V13.01,2013-06-22 09:03:00,
2013-06-22 04:08:00,77.1,70.8,29.89,SSW,210,0.0,18.0,81,0.00,,,0.00,VWS V13.01,2013-06-22 09:08:00,
2013-06-22 04:10:00,77.1,71.2,29.89,South,178,0.0,9.0,82,0.00,,,0.00,VWS V15.00,2013-06-22 09:10:00,
2013-06-22 04:13:00,77.0,70.7,29.89,SSE,152,0.0,8.0,81,0.00,,,0.00,VWS V13.01,2013-06-22 09:13:00,
2013-06-22 04:18:00,77.0,70.7,29.89,South,183,0.0,13.0,81,0.00,,,0.00,VWS V13.01,2013-06-22 09:18:00,
2013-06-22 04:20:00,77.1,71.2,29.89,SSE,163,0.0,17.0,82,0.00,,,0.00,VWS V15.00,2013-06-22 09:20:00,
2013-06-22 04:23:00,76.9,71.0,29.89,SSW,196,0.0,10.0,82,0.00,,,0.00,VWS V13.01,2013-06-22 09:23:00,
2013-06-22 04:28:00,76.9,71.0,29.89,SSW,212,7.0,14.0,82,0.00,,,0.00,VWS V13.01,2013-06-22 09:28:00,
2013-06-22 04:30:00,77.1,70.8,29.90,SSW,198,9.0,11.0,81,0.00,,,0.00,VWS V15.00,2013-06-22 09:30:00,
2013-06-22 04:33:00,76.8,70.9,29.88,SSW,194,5.0,16.0,82,0.00,,,0.00,VWS V13.01,2013-06-22 09:33:00,
2013-06-22 04:38:00,76.7,70.8,29.88,SSW,206,0.0,16.0,82,0.00,,,0.00,VWS V13.01,2013-06-22 09:38:00,
2013-06-22 04:40:00,77.1,70.8,29.90,SSW,198,2.0,16.0,81,0.00,,,0.00,VWS V15.00,2013-06-22 09:40:00,
2013-06-22 04:43:00,76.6,70.7,29.88,South,187,12.0,13.0,82,0.00,,,0.00,VWS V13.01,2013-06-22 09:43:00,
2013-06-22 04:48:00,76.6,70.7,29.89,SSW,206,8.0,16.0,82,0.00,,,0.00,VWS V13.01,2013-06-22 09:48:00,
2013-06-22 04:50:00,77.1,70.8,29.89,South,176,6.0,13.0,81,0.00,,,0.00,VWS V15.00,2013-06-22 09:50:00,
2013-06-22 04:53:00,76.6,70.7,29.89,SSW,203,0.0,14.0,82,0.00,,,0.00,VWS V13.01,2013-06-22 09:53:00,
2013-06-22 04:59:00,76.6,71.1,29.89,SSW,203,7.0,14.0,83,0.00,,,0.00,VWS V13.01,2013-06-22 09:59:00,
2013-06-22 05:00:00,77.1,70.8,29.89,SSW,200,6.0,17.0,81,0.00,,,0.00,VWS V15.00,2013-06-22 10:00:00,
2013-06-22 05:04:00,76.5,71.0,29.89,South,176,0.0,15.0,83,0.00,,,0.00,VWS V13.01,2013-06-22 10:04:00,
2013-06-22 05:09:00,76.5,71.0,29.89,SSW,202,0.0,15.0,83,0.00,,,0.00,VWS V13.01,2013-06-22 10:09:00,
2013-06-22 05:10:00,77.1,70.8,29.89,SSW,213,0.0,18.0,81,0.00,,,0.00,VWS V15.00,2013-06-22 10:10:00,
2013-06-22 05:14:00,76.5,71.0,29.89,SSW,206,7.0,8.0,83,0.00,,,0.00,VWS V13.01,2013-06-22 10:14:00,
2013-06-22 05:19:00,76.4,70.9,29.89,South,171,0.0,8.0,83,0.00,,,0.00,VWS V13.01,2013-06-22 10:19:00,
2013-06-22 05:20:00,77.0,71.1,29.89,South,185,10.0,13.0,82,0.00,,,0.00,VWS V15.00,2013-06-22 10:20:00,
2013-06-22 05:24:00,76.4,70.9,29.89,SSE,150,0.0,8.0,83,0.00,,,0.00,VWS V13.01,2013-06-22 10:24:00,
2013-06-22 05:29:00,76.4,71.2,29.89,SW,223,0.0,10.0,84,0.00,,,0.00,VWS V13.01,2013-06-22 10:29:00,
2013-06-22 05:30:00,76.8,70.9,29.88,SW,230,0.0,14.0,82,0.00,,,0.00,VWS V15.00,2013-06-22 10:30:00,
2013-06-22 05:34:00,76.3,71.1,29.90,South,172,11.0,11.0,84,0.00,,,0.00,VWS V13.01,2013-06-22 10:34:00,
2013-06-22 05:39:00,76.2,71.0,29.90,SE,146,0.0,11.0,84,0.00,,,0.00,VWS V13.01,2013-06-22 10:39:00,
2013-06-22 05:40:00,76.6,70.7,29.88,South,180,9.0,16.0,82,0.00,,,0.00,VWS V15.00,2013-06-22 10:40:00,
2013-06-22 05:44:00,76.2,71.0,29.90,SSW,195,5.0,9.0,84,0.00,,,0.00,VWS V13.01,2013-06-22 10:44:00,
2013-06-22 05:49:00,76.1,70.9,29.91,SSW,195,0.0,11.0,84,0.00,,,0.00,VWS V13.01,2013-06-22 10:49:00,
2013-06-22 05:50:00,76.6,70.7,29.89,South,171,0.0,16.0,82,0.00,,,0.00,VWS V15.00,2013-06-22 10:50:00,
2013-06-22 05:54:00,76.1,70.9,29.91,SSW,192,0.0,5.0,84,0.00,,,0.00,VWS V13.01,2013-06-22 10:54:00,
2013-06-22 05:59:00,76.1,70.9,29.91,SSE,159,3.0,7.0,84,0.00,,,0.00,VWS V13.01,2013-06-22 10:59:00,
2013-06-22 06:00:00,76.5,71.0,29.89,SSE,167,1.0,14.0,83,0.00,,,0.00,VWS V15.00,2013-06-22 11:00:00,
2013-06-22 06:04:00,76.0,70.8,29.91,SSW,210,0.0,7.0,84,0.00,,,0.00,VWS V13.01,2013-06-22 11:04:00,
2013-06-22 06:09:00,76.0,70.8,29.91,SSE,168,4.0,7.0,84,0.00,,,0.00,VWS V13.01,2013-06-22 11:09:00,
2013-06-22 06:10:00,76.5,71.0,29.89,SSW,194,0.0,15.0,83,0.00,,,0.00,VWS V15.00,2013-06-22 11:10:00,
2013-06-22 06:14:00,76.0,70.8,29.91,South,171,0.0,7.0,84,0.00,,,0.00,VWS V13.01,2013-06-22 11:14:00,
2013-06-22 06:19:00,75.9,71.1,29.91,South,169,0.0,7.0,85,0.00,,,0.00,VWS V13.01,2013-06-22 11:19:00,
2013-06-22 06:20:00,76.4,70.9,29.89,South,172,0.0,9.0,83,0.00,,,0.00,VWS V15.00,2013-06-22 11:20:00,
2013-06-22 06:24:00,75.9,71.1,29.91,SSW,192,0.0,6.0,85,0.00,,,0.00,VWS V13.01,2013-06-22 11:24:00,
2013-06-22 06:29:00,75.8,71.0,29.91,South,172,0.0,6.0,85,0.00,,,0.00,VWS V13.01,2013-06-22 11:29:00,
2013-06-22 06:30:00,76.3,71.1,29.90,South,189,0.0,10.0,84,0.00,,,0.00,VWS V15.00,2013-06-22 11:30:00,
2013-06-22 06:34:00,75.8,71.0,29.91,SSE,161,0.0,9.0,85,0.00,,,0.00,VWS V13.01,2013-06-22 11:34:00,
2013-06-22 06:39:00,75.8,71.0,29.91,SSE,160,0.0,9.0,85,0.00,,,0.00,VWS V13.01,2013-06-22 11:39:00,
2013-06-22 06:40:00,76.2,71.0,29.90,South,184,0.0,11.0,84,0.00,,,0.00,VWS V15.00,2013-06-22 11:40:00,
2013-06-22 06:44:00,75.8,71.0,29.91,SSE,159,0.0,4.0,85,0.00,,,0.00,VWS V13.01,2013-06-22 11:44:00,
2013-06-22 06:49:00,75.8,71.3,29.92,SSW,204,0.0,7.0,86,0.00,,,0.00,VWS V13.01,2013-06-22 11:49:00,
2013-06-22 06:50:00,76.1,70.9,29.91,South,177,4.0,11.0,84,0.00,,,0.00,VWS V15.00,2013-06-22 11:50:00,
2013-06-22 06:54:00,75.7,71.2,29.92,South,169,4.0,4.0,86,0.00,,,0.00,VWS V13.01,2013-06-22 11:54:00,
2013-06-22 06:59:00,75.7,71.2,29.92,SSW,194,3.0,8.0,86,0.00,,,0.00,VWS V13.01,2013-06-22 11:59:00,
2013-06-22 07:00:00,76.0,70.8,29.91,SSW,196,7.0,7.0,84,0.00,,,0.00,VWS V15.00,2013-06-22 12:00:00,
2013-06-22 07:04:00,75.8,71.3,29.92,South,188,0.0,0.0,86,0.00,,,0.00,VWS V13.01,2013-06-22 12:04:00,
2013-06-22 07:09:00,75.8,71.3,29.92,South,188,0.0,0.0,86,0.00,,,0.00,VWS V13.01,2013-06-22 12:09:00,
2013-06-22 07:10:00,76.0,70.8,29.91,South,187,0.0,7.0,84,0.00,,,0.00,VWS V15.00,2013-06-22 12:10:00,
2013-06-22 07:14:00,75.8,71.3,29.92,SSE,163,0.0,0.0,86,0.00,,,0.00,VWS V13.01,2013-06-22 12:14:00,
2013-06-22 07:19:00,75.8,71.3,29.92,SSE,162,0.0,1.0,86,0.00,,,0.00,VWS V13.01,2013-06-22 12:19:00,
2013-06-22 07:20:00,75.9,71.1,29.91,SSW,198,0.0,7.0,85,0.00,,,0.00,VWS V15.00,2013-06-22 12:20:00,
2013-06-22 07:24:00,75.9,71.4,29.92,SSE,159,0.0,9.0,86,0.00,,,0.00,VWS V13.01,2013-06-22 12:24:00,
2013-06-22 07:29:00,75.9,71.4,29.92,South,175,1.0,9.0,86,0.00,,,0.00,VWS V13.01,2013-06-22 12:29:00,
2013-06-22 07:30:00,75.8,71.0,29.91,SSE,157,9.0,9.0,85,0.00,,,0.00,VWS V15.00,2013-06-22 12:30:00,
2013-06-22 07:34:00,76.0,71.5,29.93,South,169,0.0,0.0,86,0.00,,,0.00,VWS V13.01,2013-06-22 12:34:00,
2013-06-22 07:39:00,76.1,71.6,29.93,SSE,151,0.0,8.0,86,0.00,,,0.00,VWS V13.01,2013-06-22 12:39:00,
2013-06-22 07:40:00,75.8,71.0,29.91,SSE,160,0.0,9.0,85,0.00,,,0.00,VWS V15.00,2013-06-22 12:40:00,
2013-06-22 07:44:00,76.2,71.7,29.93,South,180,1.0,5.0,86,0.00,,,0.00,VWS V13.01,2013-06-22 12:44:00,
2013-06-22 07:49:00,76.3,71.8,29.93,South,172,0.0,9.0,86,0.00,,,0.00,VWS V13.01,2013-06-22 12:49:00,
2013-06-22 07:50:00,75.7,71.2,29.92,SSW,199,0.0,7.0,86,0.00,,,0.00,VWS V15.00,2013-06-22 12:50:00,
2013-06-22 07:54:00,76.5,72.0,29.93,SSE,153,5.0,10.0,86,0.00,,,0.00,VWS V13.01,2013-06-22 12:54:00,
2013-06-22 07:59:00,76.7,72.2,29.93,South,178,4.0,10.0,86,0.00,,,0.00,VWS V13.01,2013-06-22 12:59:00,
2013-06-22 08:00:00,75.8,71.3,29.92,South,188,0.0,8.0,86,0.00,,,0.00,VWS V15.00,2013-06-22 13:00:00,
2013-06-22 08:04:00,76.9,72.1,29.93,SW,218,5.0,14.0,85,0.00,,,0.00,VWS V13.01,2013-06-22 13:04:00,
2013-06-22 08:09:00,77.1,71.9,29.93,SSW,194,7.0,14.0,84,0.00,,,0.00,VWS V13.01,2013-06-22 13:09:00,
2013-06-22 08:10:00,75.8,71.3,29.92,South,188,0.0,0.0,86,0.00,,,0.00,VWS V15.00,2013-06-22 13:10:00,
2013-06-22 08:14:00,77.3,71.7,29.93,SSW,198,4.0,12.0,83,0.00,,,0.00,VWS V13.01,2013-06-22 13:14:00,
2013-06-22 08:19:00,77.4,71.5,29.94,SSW,197,12.0,14.0,82,0.00,,,0.00,VWS V13.01,2013-06-22 13:19:00,
2013-06-22 08:20:00,75.8,71.3,29.92,SSW,198,2.0,10.0,86,0.00,,,0.00,VWS V15.00,2013-06-22 13:20:00,
2013-06-22 08:24:00,77.7,71.8,29.94,SSW,199,8.0,10.0,82,0.00,,,0.00,VWS V13.01,2013-06-22 13:24:00,
2013-06-22 08:29:00,77.8,71.5,29.94,South,184,0.0,15.0,81,0.00,,,0.00,VWS V13.01,2013-06-22 13:29:00,
2013-06-22 08:30:00,76.0,71.5,29.93,South,171,0.0,9.0,86,0.00,,,0.00,VWS V15.00,2013-06-22 13:30:00,
2013-06-22 08:34:00,77.9,71.2,29.94,SSW,199,11.0,19.0,80,0.00,,,0.00,VWS V13.01,2013-06-22 13:34:00,
2013-06-22 08:39:00,77.9,71.2,29.94,SSW,192,11.0,19.0,80,0.00,,,0.00,VWS V13.01,2013-06-22 13:39:00,
2013-06-22 08:40:00,76.1,71.6,29.93,SSE,150,0.0,8.0,86,0.00,,,0.00,VWS V15.00,2013-06-22 13:40:00,
2013-06-22 08:44:00,78.1,71.4,29.94,SW,225,3.0,10.0,80,0.00,,,0.00,VWS V13.01,2013-06-22 13:44:00,
2013-06-22 08:49:00,78.4,71.7,29.95,SSW,207,0.0,10.0,80,0.00,,,0.00,VWS V13.01,2013-06-22 13:49:00,
2013-06-22 08:50:00,76.4,71.9,29.93,SSE,168,7.0,9.0,86,0.00,,,0.00,VWS V15.00,2013-06-22 13:50:00,
2013-06-22 08:54:00,78.6,71.6,29.95,SSW,207,9.0,13.0,79,0.00,,,0.00,VWS V13.01,2013-06-22 13:54:00,
2013-06-22 08:59:00,78.7,70.5,29.95,SW,228,10.0,14.0,76,0.00,,,0.00,VWS V13.01,2013-06-22 13:59:00,
2013-06-22 09:00:00,76.8,72.3,29.93,SW,219,7.0,12.0,86,0.00,,,0.00,VWS V15.00,2013-06-22 14:00:00,
2013-06-22 09:04:00,79.1,70.9,29.95,SSW,210,11.0,12.0,76,0.00,,,0.00,VWS V13.01,2013-06-22 14:04:00,
2013-06-22 09:09:00,79.3,70.3,29.95,SW,214,7.0,16.0,74,0.00,,,0.00,VWS V13.01,2013-06-22 14:09:00,
2013-06-22 09:10:00,77.2,72.0,29.93,SSW,192,0.0,15.0,84,0.00,,,0.00,VWS V15.00,2013-06-22 14:10:00,
2013-06-22 09:14:00,79.6,70.6,29.95,SSW,210,5.0,11.0,74,0.00,,,0.00,VWS V13.01,2013-06-22 14:14:00,
2013-06-22 09:20:00,79.9,70.9,29.96,West,259,0.0,11.0,74,0.00,,,0.00,VWS V13.01,2013-06-22 14:20:00,
2013-06-22 09:25:00,80.3,70.9,29.96,SW,217,3.0,9.0,73,0.00,,,0.00,VWS V13.01,2013-06-22 14:25:00,
2013-06-22 09:30:00,80.7,71.2,29.96,SW,229,0.0,9.0,73,0.00,,,0.00,VWS V13.01,2013-06-22 14:30:00,
2013-06-22 09:35:00,81.1,70.0,29.96,SW,222,10.0,16.0,69,0.00,,,0.00,VWS V13.01,2013-06-22 14:35:00,
2013-06-22 09:40:00,81.7,69.7,29.96,SW,229,9.0,16.0,67,0.00,,,0.00,VWS V13.01,2013-06-22 14:40:00,
2013-06-22 09:45:00,81.5,69.5,29.96,SW,233,5.0,16.0,67,0.00,,,0.00,VWS V13.01,2013-06-22 14:45:00,
2013-06-22 09:50:00,81.2,68.8,29.96,SSW,194,10.0,19.0,66,0.00,,,0.00,VWS V13.01,2013-06-22 14:50:00,
2013-06-22 09:55:00,81.5,69.5,29.96,SW,227,12.0,17.0,67,0.00,,,0.00,VWS V13.01,2013-06-22 14:55:00,
2013-06-22 10:00:00,82.1,69.2,29.96,South,183,12.0,17.0,65,0.00,,,0.00,VWS V13.01,2013-06-22 15:00:00,
2013-06-22 10:05:00,83.0,69.1,29.95,SSW,196,11.0,11.0,63,0.00,,,0.00,VWS V13.01,2013-06-22 15:05:00,
2013-06-22 10:10:00,83.2,68.8,29.95,SW,218,9.0,17.0,62,0.00,,,0.00,VWS V13.01,2013-06-22 15:10:00,
2013-06-22 10:15:00,83.5,69.6,29.95,SSW,206,15.0,15.0,63,0.00,,,0.00,VWS V13.01,2013-06-22 15:15:00,
2013-06-22 10:20:00,83.8,68.9,29.95,SW,225,8.0,19.0,61,0.00,,,0.00,VWS V13.01,2013-06-22 15:20:00,
2013-06-22 10:25:00,84.2,68.8,29.95,SSW,200,5.0,20.0,60,0.00,,,0.00,VWS V13.01,2013-06-22 15:25:00,
2013-06-22 10:30:00,84.3,68.9,29.95,SSW,212,4.0,20.0,60,0.00,,,0.00,VWS V13.01,2013-06-22 15:30:00,
2013-06-22 10:35:00,84.7,69.3,29.95,SSW,213,9.0,14.0,60,0.00,,,0.00,VWS V13.01,2013-06-22 15:35:00,
2013-06-22 10:40:00,85.0,69.1,29.95,SSW,194,7.0,14.0,59,0.00,,,0.00,VWS V13.01,2013-06-22 15:40:00,
2013-06-22 10:45:00,85.5,69.6,29.95,South,186,7.0,13.0,59,0.00,,,0.00,VWS V13.01,2013-06-22 15:45:00,
2013-06-22 10:50:00,85.6,69.6,29.94,SSW,209,7.0,14.0,59,0.00,,,0.00,VWS V13.01,2013-06-22 15:50:00,
2013-06-22 10:55:00,85.5,69.1,29.94,SSW,204,9.0,11.0,58,0.00,,,0.00,VWS V13.01,2013-06-22 15:55:00,
2013-06-22 11:00:00,85.7,68.2,29.94,South,175,11.0,14.0,56,0.00,,,0.00,VWS V13.01,2013-06-22 16:00:00,
2013-06-22 11:05:00,85.9,68.4,29.94,SSW,202,8.0,17.0,56,0.00,,,0.00,VWS V13.01,2013-06-22 16:05:00,
2013-06-22 11:10:00,86.4,69.9,29.94,SSW,205,7.0,17.0,58,0.00,,,0.00,VWS V13.01,2013-06-22 16:10:00,
2013-06-22 11:15:00,87.2,69.6,29.94,SW,232,0.0,11.0,56,0.00,,,0.00,VWS V13.01,2013-06-22 16:15:00,
2013-06-22 11:20:00,87.2,68.5,29.94,SW,223,7.0,17.0,54,0.00,,,0.00,VWS V13.01,2013-06-22 16:20:00,
2013-06-22 11:25:00,87.7,69.0,29.94,SW,228,6.0,12.0,54,0.00,,,0.00,VWS V13.01,2013-06-22 16:25:00,
2013-06-22 11:30:00,88.3,70.1,29.94,SSW,200,9.0,13.0,55,0.00,,,0.00,VWS V13.01,2013-06-22 16:30:00,
2013-06-22 11:35:00,88.4,69.1,29.95,SW,215,8.0,16.0,53,0.00,,,0.00,VWS V13.01,2013-06-22 16:35:00,
2013-06-22 11:40:00,88.4,69.1,29.95,SSW,197,9.0,16.0,53,0.00,,,0.00,VWS V13.01,2013-06-22 16:40:00,
2013-06-22 11:45:00,88.4,68.6,29.95,SSW,204,0.0,14.0,52,0.00,,,0.00,VWS V13.01,2013-06-22 16:45:00,
2013-06-22 11:50:00,88.4,68.0,29.94,SSW,203,1.0,14.0,51,0.00,,,0.00,VWS V13.01,2013-06-22 16:50:00,
2013-06-22 11:55:00,88.6,69.3,29.94,WSW,240,8.0,15.0,53,0.00,,,0.00,VWS V13.01,2013-06-22 16:55:00,
2013-06-22 12:00:00,89.3,69.4,29.94,SW,229,5.0,15.0,52,0.00,,,0.00,VWS V13.01,2013-06-22 17:00:00,
2013-06-22 12:05:00,89.3,68.2,29.94,South,184,5.0,14.0,50,0.00,,,0.00,VWS V13.01,2013-06-22 17:05:00,
2013-06-22 12:10:00,88.8,68.4,29.94,SSW,196,10.0,16.0,51,0.00,,,0.00,VWS V13.01,2013-06-22 17:10:00,
2013-06-22 12:15:00,89.0,68.0,29.94,South,186,6.0,14.0,50,0.00,,,0.00,VWS V13.01,2013-06-22 17:15:00,
2013-06-22 12:20:00,89.2,68.2,29.94,SW,215,11.0,16.0,50,0.00,,,0.00,VWS V13.01,2013-06-22 17:20:00,
2013-06-22 12:25:00,89.2,68.7,29.94,SW,227,0.0,18.0,51,0.00,,,0.00,VWS V13.01,2013-06-22 17:25:00,
2013-06-22 12:30:00,90.0,69.5,29.93,SSE,158,5.0,18.0,51,0.00,,,0.00,VWS V13.01,2013-06-22 17:30:00,
2013-06-22 12:35:00,90.2,67.3,29.93,SW,232,6.0,14.0,47,0.00,,,0.00,VWS V13.01,2013-06-22 17:35:00,
2013-06-22 12:40:00,90.0,68.3,29.93,SSE,156,1.0,14.0,49,0.00,,,0.00,VWS V13.01,2013-06-22 17:40:00,
2013-06-22 12:45:00,90.8,68.4,29.93,SSW,209,7.0,13.0,48,0.00,,,0.00,VWS V13.01,2013-06-22 17:45:00,
2013-06-22 12:50:00,91.2,68.2,29.93,SW,236,8.0,13.0,47,0.00,,,0.00,VWS V13.01,2013-06-22 17:50:00,
2013-06-22 12:55:00,91.8,68.1,29.93,South,184,9.0,11.0,46,0.00,,,0.00,VWS V13.01,2013-06-22 17:55:00,
2013-06-22 13:00:00,92.1,69.0,29.92,WSW,240,6.0,12.0,47,0.00,,,0.00,VWS V13.01,2013-06-22 18:00:00,
2013-06-22 13:05:00,92.7,68.9,29.92,SW,215,14.0,19.0,46,0.00,,,0.00,VWS V13.01,2013-06-22 18:05:00,
2013-06-22 13:10:00,92.4,68.0,29.92,SW,219,7.0,19.0,45,0.00,,,0.00,VWS V13.01,2013-06-22 18:10:00,
2013-06-22 13:16:00,93.5,68.3,29.92,SW,228,8.0,11.0,44,0.00,,,0.00,VWS V13.01,2013-06-22 18:16:00,
2013-06-22 13:20:00,89.1,68.1,29.94,SSW,198,12.0,16.0,50,0.00,,,0.00,VWS V15.00,2013-06-22 18:20:00,
2013-06-22 13:21:00,92.9,67.8,29.92,SSW,207,7.0,21.0,44,0.00,,,0.00,VWS V13.01,2013-06-22 18:21:00,
2013-06-22 13:26:00,93.8,67.9,29.92,SSW,194,12.0,13.0,43,0.00,,,0.00,VWS V13.01,2013-06-22 18:26:00,
2013-06-22 13:30:00,90.0,68.9,29.93,SSE,161,5.0,18.0,50,0.00,,,0.00,VWS V15.00,2013-06-22 18:30:00,
2013-06-22 13:31:00,93.8,66.6,29.92,SW,218,9.0,15.0,41,0.00,,,0.00,VWS V13.01,2013-06-22 18:31:00,
2013-06-22 13:36:00,93.1,68.0,29.92,SSE,165,0.0,16.0,44,0.00,,,0.00,VWS V13.01,2013-06-22 18:36:00,
2013-06-22 13:40:00,90.1,69.0,29.93,SW,221,9.0,14.0,50,0.00,,,0.00,VWS V15.00,2013-06-22 18:40:00,
2013-06-22 13:41:00,93.3,67.5,29.92,South,171,9.0,16.0,43,0.00,,,0.00,VWS V13.01,2013-06-22 18:41:00,
2013-06-22 13:46:00,93.7,67.8,29.92,SW,229,7.0,13.0,43,0.00,,,0.00,VWS V13.01,2013-06-22 18:46:00,
2013-06-22 13:50:00,91.3,68.3,29.93,SW,226,6.0,13.0,47,0.00,,,0.00,VWS V15.00,2013-06-22 18:50:00,
2013-06-22 13:51:00,94.4,66.4,29.92,SW,215,13.0,18.0,40,0.00,,,0.00,VWS V13.01,2013-06-22 18:51:00,
2013-06-22 13:56:00,94.1,67.5,29.92,SW,232,0.0,13.0,42,0.00,,,0.00,VWS V13.01,2013-06-22 18:56:00,
2013-06-22 14:00:00,92.2,69.1,29.92,WSW,239,5.0,12.0,47,0.00,,,0.00,VWS V15.00,2013-06-22 19:00:00,
2013-06-22 14:01:00,94.6,66.6,29.91,SSW,203,0.0,14.0,40,0.00,,,0.00,VWS V13.01,2013-06-22 19:01:00,
2013-06-22 14:06:00,94.1,66.8,29.91,SSW,197,7.0,17.0,41,0.00,,,0.00,VWS V13.01,2013-06-22 19:06:00,
2013-06-22 14:10:00,92.5,68.1,29.92,SW,225,9.0,19.0,45,0.00,,,0.00,VWS V15.00,2013-06-22 19:10:00,
2013-06-22 14:11:00,93.9,64.5,29.91,SSW,197,7.0,17.0,38,0.00,,,0.00,VWS V13.01,2013-06-22 19:11:00,
2013-06-22 14:16:00,94.8,66.0,29.90,SW,226,8.0,14.0,39,0.00,,,0.00,VWS V13.01,2013-06-22 19:16:00,
2013-06-22 14:20:00,92.9,67.1,29.92,SW,215,5.0,21.0,43,0.00,,,0.00,VWS V15.00,2013-06-22 19:20:00,
2013-06-22 14:21:00,95.6,66.0,29.90,SW,234,0.0,14.0,38,0.00,,,0.00,VWS V13.01,2013-06-22 19:21:00,
2013-06-22 14:26:00,95.9,66.2,29.90,SSW,197,16.0,17.0,38,0.00,,,0.00,VWS V13.01,2013-06-22 19:26:00,
2013-06-22 14:30:00,93.8,66.6,29.92,SW,227,9.0,15.0,41,0.00,,,0.00,VWS V15.00,2013-06-22 19:30:00,
2013-06-22 14:31:00,95.2,65.6,29.90,SW,232,8.0,17.0,38,0.00,,,0.00,VWS V13.01,2013-06-22 19:31:00,
2013-06-22 14:36:00,95.2,64.8,29.90,SSW,199,0.0,17.0,37,0.00,,,0.00,VWS V13.01,2013-06-22 19:36:00,
2013-06-22 14:40:00,93.3,67.5,29.92,South,172,1.0,16.0,43,0.00,,,0.00,VWS V15.00,2013-06-22 19:40:00,
2013-06-22 14:41:00,95.3,66.4,29.90,SSW,196,5.0,18.0,39,0.00,,,0.00,VWS V13.01,2013-06-22 19:41:00,
2013-06-22 14:46:00,94.9,64.6,29.89,SSW,198,9.0,19.0,37,0.00,,,0.00,VWS V13.01,2013-06-22 19:46:00,
2013-06-22 14:50:00,94.6,67.3,29.91,South,191,9.0,14.0,41,0.00,,,0.00,VWS V15.00,2013-06-22 19:50:00,
2013-06-22 14:51:00,94.9,64.6,29.89,SSW,213,12.0,15.0,37,0.00,,,0.00,VWS V13.01,2013-06-22 19:51:00,
2013-06-22 14:56:00,95.3,65.7,29.89,South,173,0.0,17.0,38,0.00,,,0.00,VWS V13.01,2013-06-22 19:56:00,
2013-06-22 15:00:00,94.6,67.3,29.91,South,191,9.0,14.0,41,0.00,,,0.00,VWS V15.00,2013-06-22 20:00:00,
2013-06-22 15:01:00,95.0,64.7,29.89,SW,217,7.0,9.0,37,0.00,,,0.00,VWS V13.01,2013-06-22 20:01:00,
2013-06-22 15:06:00,95.0,65.4,29.89,SW,222,7.0,16.0,38,0.00,,,0.00,VWS V13.01,2013-06-22 20:06:00,
2013-06-22 15:10:00,93.8,64.4,29.91,SSW,205,10.0,17.0,38,0.00,,,0.00,VWS V15.00,2013-06-22 20:10:00,
2013-06-22 15:11:00,95.0,66.2,29.89,SSW,192,11.0,11.0,39,0.00,,,0.00,VWS V13.01,2013-06-22 20:11:00,
2013-06-22 15:16:00,95.0,67.6,29.88,South,188,0.0,16.0,41,0.00,,,0.00,VWS V13.01,2013-06-22 20:16:00,
2013-06-22 15:20:00,95.6,66.0,29.90,SW,234,0.0,14.0,38,0.00,,,0.00,VWS V15.00,2013-06-22 20:20:00,
2013-06-22 15:21:00,95.0,66.9,29.88,South,190,0.0,0.0,40,0.00,,,0.00,VWS V13.01,2013-06-22 20:21:00,
2013-06-22 15:26:00,95.7,68.2,29.88,South,178,0.0,8.0,41,0.00,,,0.00,VWS V13.01,2013-06-22 20:26:00,
2013-06-22 15:30:00,95.2,65.6,29.90,SW,232,8.0,17.0,38,0.00,,,0.00,VWS V15.00,2013-06-22 20:30:00,
2013-06-22 15:31:00,95.7,66.8,29.87,SSW,201,3.0,7.0,39,0.00,,,0.00,VWS V13.01,2013-06-22 20:31:00,
2013-06-22 15:36:00,95.6,66.7,29.87,SE,146,6.0,13.0,39,0.00,,,0.00,VWS V13.01,2013-06-22 20:36:00,
2013-06-22 15:40:00,95.3,66.4,29.90,SSW,196,5.0,18.0,39,0.00,,,0.00,VWS V15.00,2013-06-22 20:40:00,
2013-06-22 15:41:00,95.3,66.4,29.87,SSE,147,4.0,4.0,39,0.00,,,0.00,VWS V13.01,2013-06-22 20:41:00,
2013-06-22 15:46:00,95.6,66.7,29.86,SSW,197,4.0,16.0,39,0.00,,,0.00,VWS V13.01,2013-06-22 20:46:00,
2013-06-22 15:50:00,94.9,64.6,29.89,SSW,207,15.0,19.0,37,0.00,,,0.00,VWS V15.00,2013-06-22 20:50:00,
2013-06-22 15:51:00,95.6,67.4,29.86,SW,214,9.0,10.0,40,0.00,,,0.00,VWS V13.01,2013-06-22 20:51:00,
2013-06-22 15:56:00,96.2,67.2,29.86,WSW,252,1.0,12.0,39,0.00,,,0.00,VWS V13.01,2013-06-22 20:56:00,
2013-06-22 16:00:00,95.0,64.7,29.89,SSE,168,9.0,19.0,37,0.00,,,0.00,VWS V15.00,2013-06-22 21:00:00,
2013-06-22 16:02:00,96.2,66.5,29.85,SE,138,7.0,15.0,38,0.00,,,0.00,VWS V13.01,2013-06-22 21:02:00,
2013-06-22 16:07:00,95.3,66.4,29.85,SE,140,5.0,17.0,39,0.00,,,0.00,VWS V13.01,2013-06-22 21:07:00,
2013-06-22 16:10:00,95.0,66.2,29.89,SSW,213,0.0,16.0,39,0.00,,,0.00,VWS V15.00,2013-06-22 21:10:00,
2013-06-22 16:12:00,95.3,65.7,29.85,SSW,207,5.0,11.0,38,0.00,,,0.00,VWS V13.01,2013-06-22 21:12:00,
2013-06-22 16:17:00,95.7,68.2,29.84,South,169,1.0,12.0,41,0.00,,,0.00,VWS V13.01,2013-06-22 21:17:00,
2013-06-22 16:20:00,95.0,66.9,29.88,South,183,0.0,16.0,40,0.00,,,0.00,VWS V15.00,2013-06-22 21:20:00,
2013-06-22 16:22:00,96.2,66.5,29.84,South,172,10.0,11.0,38,0.00,,,0.00,VWS V13.01,2013-06-22 21:22:00,
2013-06-22 16:27:00,96.3,67.3,29.84,SSE,166,1.0,17.0,39,0.00,,,0.00,VWS V13.01,2013-06-22 21:27:00,
2013-06-22 16:30:00,95.7,66.8,29.87,SSE,156,0.0,16.0,39,0.00,,,0.00,VWS V15.00,2013-06-22 21:30:00,
2013-06-22 16:32:00,96.3,66.6,29.83,SSE,160,0.0,8.0,38,0.00,,,0.00,VWS V13.01,2013-06-22 21:32:00,
2013-06-22 16:37:00,96.1,67.2,29.83,SW,220,10.0,12.0,39,0.00,,,0.00,VWS V13.01,2013-06-22 21:37:00,
2013-06-22 16:40:00,95.4,66.5,29.87,SSE,164,0.0,14.0,39,0.00,,,0.00,VWS V15.00,2013-06-22 21:40:00,
2013-06-22 16:42:00,96.1,66.4,29.83,SSE,168,0.0,7.0,38,0.00,,,0.00,VWS V13.01,2013-06-22 21:42:00,
2013-06-22 16:47:00,96.3,66.6,29.83,SW,221,14.0,15.0,38,0.00,,,0.00,VWS V13.01,2013-06-22 21:47:00,
2013-06-22 16:50:00,95.6,66.7,29.86,SSW,210,0.0,17.0,39,0.00,,,0.00,VWS V15.00,2013-06-22 21:50:00,
2013-06-22 16:52:00,95.9,67.0,29.83,South,190,0.0,7.0,39,0.00,,,0.00,VWS V13.01,2013-06-22 21:52:00,
2013-06-22 16:57:00,95.7,66.8,29.83,SE,145,6.0,11.0,39,0.00,,,0.00,VWS V13.01,2013-06-22 21:57:00,
2013-06-22 17:00:00,96.2,66.5,29.85,SE,138,7.0,15.0,38,0.00,,,0.00,VWS V15.00,2013-06-22 22:00:00,
2013-06-22 17:02:00,95.5,65.9,29.83,SW,226,4.0,18.0,38,0.00,,,0.00,VWS V13.01,2013-06-22 22:02:00,
2013-06-22 17:07:00,95.5,66.6,29.83,South,182,10.0,18.0,39,0.00,,,0.00,VWS V13.01,2013-06-22 22:07:00,
2013-06-22 17:10:00,95.2,66.4,29.85,SSW,199,11.0,17.0,39,0.00,,,0.00,VWS V15.00,2013-06-22 22:10:00,
2013-06-22 17:12:00,95.6,66.0,29.83,SSW,195,7.0,14.0,38,0.00,,,0.00,VWS V13.01,2013-06-22 22:12:00,
2013-06-22 17:17:00,95.9,66.2,29.82,SW,215,7.0,14.0,38,0.00,,,0.00,VWS V13.01,2013-06-22 22:17:00,
2013-06-22 17:20:00,96.3,67.3,29.84,SSW,208,3.0,13.0,39,0.00,,,0.00,VWS V15.00,2013-06-22 22:20:00,
2013-06-22 17:22:00,95.7,66.1,29.82,SSW,200,11.0,12.0,38,0.00,,,0.00,VWS V13.01,2013-06-22 22:22:00,
2013-06-22 17:27:00,95.5,65.9,29.82,SW,220,10.0,12.0,38,0.00,,,0.00,VWS V13.01,2013-06-22 22:27:00,
2013-06-22 17:30:00,96.3,67.3,29.83,SE,133,7.0,17.0,39,0.00,,,0.00,VWS V15.00,2013-06-22 22:30:00,
2013-06-22 17:32:00,95.2,65.6,29.81,South,185,1.0,8.0,38,0.00,,,0.00,VWS V13.01,2013-06-22 22:32:00,
2013-06-22 17:37:00,95.3,64.9,29.81,SSW,205,0.0,13.0,37,0.00,,,0.00,VWS V13.01,2013-06-22 22:37:00,
2013-06-22 17:40:00,96.3,65.8,29.83,South,188,3.0,13.0,37,0.00,,,0.00,VWS V15.00,2013-06-22 22:40:00,
2013-06-22 17:42:00,96.0,66.3,29.81,SSE,161,2.0,10.0,38,0.00,,,0.00,VWS V13.01,2013-06-22 22:42:00,
2013-06-22 17:47:00,96.0,64.8,29.81,SSW,198,7.0,15.0,36,0.00,,,0.00,VWS V13.01,2013-06-22 22:47:00,
2013-06-22 17:50:00,96.0,66.3,29.83,SW,225,0.0,15.0,38,0.00,,,0.00,VWS V15.00,2013-06-22 22:50:00,
2013-06-22 17:52:00,95.9,65.5,29.81,SSE,150,8.0,12.0,37,0.00,,,0.00,VWS V13.01,2013-06-22 22:52:00,
2013-06-22 17:57:00,95.6,65.2,29.81,South,175,0.0,12.0,37,0.00,,,0.00,VWS V13.01,2013-06-22 22:57:00,
2013-06-22 18:00:00,95.5,65.9,29.83,SW,221,18.0,18.0,38,0.00,,,0.00,VWS V15.00,2013-06-22 23:00:00,
2013-06-22 18:02:00,95.7,65.3,29.80,SW,214,2.0,11.0,37,0.00,,,0.00,VWS V13.01,2013-06-22 23:02:00,
2013-06-22 18:08:00,95.6,64.4,29.80,SSE,159,11.0,14.0,36,0.00,,,0.00,VWS V13.01,2013-06-22 23:08:00,
2013-06-22 18:10:00,95.5,66.6,29.83,SW,221,7.0,18.0,39,0.00,,,0.00,VWS V15.00,2013-06-22 23:10:00,
2013-06-22 18:13:00,95.3,64.9,29.80,SSW,206,2.0,12.0,37,0.00,,,0.00,VWS V13.01,2013-06-22 23:13:00,
2013-06-22 18:18:00,95.2,65.6,29.80,South,179,9.0,13.0,38,0.00,,,0.00,VWS V13.01,2013-06-22 23:18:00,
2013-06-22 18:20:00,95.8,66.1,29.82,SE,142,0.0,14.0,38,0.00,,,0.00,VWS V15.00,2013-06-22 23:20:00,
2013-06-22 18:23:00,94.8,64.5,29.80,SW,214,4.0,8.0,37,0.00,,,0.00,VWS V13.01,2013-06-22 23:23:00,
2013-06-22 18:28:00,94.6,63.5,29.80,SSW,192,0.0,15.0,36,0.00,,,0.00,VWS V13.01,2013-06-22 23:28:00,
2013-06-22 18:30:00,95.3,65.7,29.81,SSE,158,1.0,16.0,38,0.00,,,0.00,VWS V15.00,2013-06-22 23:30:00,
2013-06-22 18:33:00,94.7,63.6,29.80,SSW,207,7.0,14.0,36,0.00,,,0.00,VWS V13.01,2013-06-22 23:33:00,
2013-06-22 18:38:00,94.8,64.5,29.80,SSW,198,0.0,14.0,37,0.00,,,0.00,VWS V13.01,2013-06-22 23:38:00,
2013-06-22 18:40:00,95.7,66.8,29.81,SW,227,0.0,13.0,39,0.00,,,0.00,VWS V15.00,2013-06-22 23:40:00,
2013-06-22 18:43:00,94.7,63.6,29.80,SSW,213,12.0,16.0,36,0.00,,,0.00,VWS V13.01,2013-06-22 23:43:00,
2013-06-22 18:48:00,94.8,64.5,29.79,SSW,198,8.0,16.0,37,0.00,,,0.00,VWS V13.01,2013-06-22 23:48:00,
2013-06-22 18:50:00,95.9,66.2,29.81,South,180,5.0,16.0,38,0.00,,,0.00,VWS V15.00,2013-06-22 23:50:00,
2013-06-22 18:53:00,94.8,64.5,29.79,South,191,0.0,13.0,37,0.00,,,0.00,VWS V13.01,2013-06-22 23:53:00,
2013-06-22 18:58:00,94.6,65.1,29.79,SSW,210,0.0,14.0,38,0.00,,,0.00,VWS V13.01,2013-06-22 23:58:00,
2013-06-22 19:00:00,95.7,65.3,29.80,SE,137,11.0,18.0,37,0.00,,,0.00,VWS V15.00,2013-06-23 00:00:00,
2013-06-22 19:03:00,94.8,64.5,29.78,SW,222,6.0,14.0,37,0.00,,,0.00,VWS V13.01,2013-06-23 00:03:00,
2013-06-22 19:08:00,94.8,65.3,29.78,SSW,196,9.0,14.0,38,0.00,,,0.00,VWS V13.01,2013-06-23 00:08:00,
2013-06-22 19:10:00,95.4,65.0,29.80,SW,224,7.0,17.0,37,0.00,,,0.00,VWS V15.00,2013-06-23 00:10:00,
2013-06-22 19:13:00,94.7,65.2,29.78,SSE,160,9.0,12.0,38,0.00,,,0.00,VWS V13.01,2013-06-23 00:13:00,
2013-06-22 19:18:00,94.5,65.7,29.78,SE,144,1.0,12.0,39,0.00,,,0.00,VWS V13.01,2013-06-23 00:18:00,
2013-06-22 19:20:00,94.8,64.5,29.80,SW,217,8.0,17.0,37,0.00,,,0.00,VWS V15.00,2013-06-23 00:20:00,
2013-06-22 19:23:00,94.2,64.7,29.78,SSW,192,5.0,14.0,38,0.00,,,0.00,VWS V13.01,2013-06-23 00:23:00,
2013-06-22 19:28:00,94.0,65.3,29.78,SE,144,0.0,15.0,39,0.00,,,0.00,VWS V13.01,2013-06-23 00:28:00,
2013-06-22 19:30:00,94.6,63.5,29.80,SW,218,9.0,15.0,36,0.00,,,0.00,VWS V15.00,2013-06-23 00:30:00,
2013-06-22 19:33:00,93.8,65.1,29.78,SSW,209,8.0,11.0,39,0.00,,,0.00,VWS V13.01,2013-06-23 00:33:00,
2013-06-22 19:38:00,93.5,64.8,29.78,South,171,0.0,14.0,39,0.00,,,0.00,VWS V13.01,2013-06-23 00:38:00,
2013-06-22 19:40:00,94.8,64.5,29.80,SSW,202,7.0,14.0,37,0.00,,,0.00,VWS V15.00,2013-06-23 00:40:00,
2013-06-22 19:43:00,93.1,65.2,29.78,SE,138,11.0,16.0,40,0.00,,,0.00,VWS V13.01,2013-06-23 00:43:00,
2013-06-22 19:48:00,92.9,65.0,29.78,SSE,153,4.0,16.0,40,0.00,,,0.00,VWS V13.01,2013-06-23 00:48:00,
2013-06-22 19:50:00,94.8,65.2,29.79,South,190,0.0,16.0,38,0.00,,,0.00,VWS V15.00,2013-06-23 00:50:00,
2013-06-22 19:53:00,92.7,64.9,29.78,SSE,165,8.0,18.0,40,0.00,,,0.00,VWS V13.01,2013-06-23 00:53:00,
2013-06-22 19:58:00,92.4,65.3,29.78,SSE,161,4.0,20.0,41,0.00,,,0.00,VWS V13.01,2013-06-23 00:58:00,
2013-06-22 20:00:00,94.7,65.2,29.78,SW,223,7.0,14.0,38,0.00,,,0.00,VWS V15.00,2013-06-23 01:00:00,
2013-06-22 20:03:00,92.2,65.8,29.78,SE,146,0.0,9.0,42,0.00,,,0.00,VWS V13.01,2013-06-23 01:03:00,
2013-06-22 20:08:00,92.0,65.6,29.78,SE,144,6.0,18.0,42,0.00,,,0.00,VWS V13.01,2013-06-23 01:08:00,
2013-06-22 20:10:00,94.7,65.9,29.78,SSW,194,5.0,14.0,39,0.00,,,0.00,VWS V15.00,2013-06-23 01:10:00,
2013-06-22 20:13:00,91.8,66.1,29.78,SE,134,17.0,17.0,43,0.00,,,0.00,VWS V13.01,2013-06-23 01:13:00,
2013-06-22 20:18:00,91.5,65.9,29.79,SSE,159,2.0,17.0,43,0.00,,,0.00,VWS V13.01,2013-06-23 01:18:00,
2013-06-22 20:20:00,94.4,65.7,29.78,SSW,199,6.0,13.0,39,0.00,,,0.00,VWS V15.00,2013-06-23 01:20:00,
2013-06-22 20:23:00,91.3,66.3,29.79,SSW,194,7.0,13.0,44,0.00,,,0.00,VWS V13.01,2013-06-23 01:23:00,
2013-06-22 20:28:00,91.1,66.2,29.79,SE,131,0.0,13.0,44,0.00,,,0.00,VWS V13.01,2013-06-23 01:28:00,
2013-06-22 20:30:00,93.9,65.2,29.78,SSW,198,0.0,17.0,39,0.00,,,0.00,VWS V15.00,2013-06-23 01:30:00,
2013-06-22 20:33:00,90.8,66.6,29.80,SSE,148,3.0,14.0,45,0.00,,,0.00,VWS V13.01,2013-06-23 01:33:00,
2013-06-22 20:38:00,90.7,66.5,29.80,ESE,121,2.0,18.0,45,0.00,,,0.00,VWS V13.01,2013-06-23 01:38:00,
2013-06-22 20:40:00,93.3,64.7,29.78,SE,129,13.0,14.0,39,0.00,,,0.00,VWS V15.00,2013-06-23 01:40:00,
2013-06-22 20:44:00,90.5,66.9,29.80,South,175,11.0,14.0,46,0.00,,,0.00,VWS V13.01,2013-06-23 01:44:00,
2013-06-22 20:49:00,90.3,66.7,29.80,SSE,154,4.0,15.0,46,0.00,,,0.00,VWS V13.01,2013-06-23 01:49:00,
2013-06-22 20:50:00,92.8,64.9,29.78,SE,135,8.0,16.0,40,0.00,,,0.00,VWS V15.00,2013-06-23 01:50:00,
2013-06-22 20:54:00,90.1,67.2,29.80,SSW,198,8.0,14.0,47,0.00,,,0.00,VWS V13.01,2013-06-23 01:54:00,
2013-06-22 20:59:00,89.9,67.0,29.80,SSW,205,7.0,14.0,47,0.00,,,0.00,VWS V13.01,2013-06-23 01:59:00,
2013-06-22 21:00:00,92.3,65.2,29.78,SE,136,9.0,20.0,41,0.00,,,0.00,VWS V15.00,2013-06-23 02:00:00,
2013-06-22 21:04:00,89.7,66.8,29.81,South,169,12.0,16.0,47,0.00,,,0.00,VWS V13.01,2013-06-23 02:04:00,
2013-06-22 21:09:00,89.5,67.2,29.81,South,184,7.0,16.0,48,0.00,,,0.00,VWS V13.01,2013-06-23 02:09:00,
2013-06-22 21:10:00,91.8,66.1,29.78,SSE,161,6.0,18.0,43,0.00,,,0.00,VWS V15.00,2013-06-23 02:10:00,
2013-06-22 21:14:00,89.2,67.6,29.81,SSW,199,4.0,8.0,49,0.00,,,0.00,VWS V13.01,2013-06-23 02:14:00,
2013-06-22 21:19:00,88.8,67.8,29.81,South,184,7.0,13.0,50,0.00,,,0.00,VWS V13.01,2013-06-23 02:19:00,
2013-06-22 21:20:00,91.4,66.4,29.79,South,169,0.0,17.0,44,0.00,,,0.00,VWS V15.00,2013-06-23 02:20:00,
2013-06-22 21:24:00,88.6,67.6,29.81,SSW,211,6.0,15.0,50,0.00,,,0.00,VWS V13.01,2013-06-23 02:24:00,
2013-06-22 21:29:00,88.3,67.9,29.81,SSW,203,0.0,15.0,51,0.00,,,0.00,VWS V13.01,2013-06-23 02:29:00,
2013-06-22 21:30:00,90.9,66.6,29.80,SSW,197,0.0,13.0,45,0.00,,,0.00,VWS V15.00,2013-06-23 02:30:00,
2013-06-22 21:34:00,88.1,67.7,29.82,SSE,160,9.0,14.0,51,0.00,,,0.00,VWS V13.01,2013-06-23 02:34:00,
2013-06-22 21:39:00,87.9,68.1,29.82,SSW,211,5.0,14.0,52,0.00,,,0.00,VWS V13.01,2013-06-23 02:39:00,
2013-06-22 21:40:00,90.6,67.0,29.80,SSE,167,14.0,18.0,46,0.00,,,0.00,VWS V15.00,2013-06-23 02:40:00,
2013-06-22 21:44:00,87.7,67.9,29.82,SW,230,8.0,16.0,52,0.00,,,0.00,VWS V13.01,2013-06-23 02:44:00,
2013-06-22 21:49:00,87.5,68.3,29.83,South,191,10.0,17.0,53,0.00,,,0.00,VWS V13.01,2013-06-23 02:49:00,
2013-06-22 21:50:00,90.2,67.3,29.80,SSE,150,10.0,15.0,47,0.00,,,0.00,VWS V15.00,2013-06-23 02:50:00,
2013-06-22 21:54:00,87.3,68.1,29.83,SSE,160,8.0,13.0,53,0.00,,,0.00,VWS V13.01,2013-06-23 02:54:00,
2013-06-22 21:59:00,87.1,67.9,29.83,South,184,5.0,14.0,53,0.00,,,0.00,VWS V13.01,2013-06-23 02:59:00,
2013-06-22 22:00:00,89.8,66.9,29.81,SSW,206,7.0,15.0,47,0.00,,,0.00,VWS V15.00,2013-06-23 03:00:00,
2013-06-22 22:04:00,87.0,68.4,29.83,SSW,195,8.0,15.0,54,0.00,,,0.00,VWS V13.01,2013-06-23 03:04:00,
2013-06-22 22:09:00,86.8,68.2,29.83,SSW,208,9.0,15.0,54,0.00,,,0.00,VWS V13.01,2013-06-23 03:09:00,
2013-06-22 22:10:00,89.3,67.1,29.81,SSW,198,8.0,16.0,48,0.00,,,0.00,VWS V15.00,2013-06-23 03:10:00,
2013-06-22 22:14:00,86.5,67.9,29.83,SW,227,11.0,20.0,54,0.00,,,0.00,VWS V13.01,2013-06-23 03:14:00,
2013-06-22 22:19:00,86.4,68.3,29.84,SW,221,10.0,20.0,55,0.00,,,0.00,VWS V13.01,2013-06-23 03:19:00,
2013-06-22 22:20:00,88.6,67.6,29.81,SSW,203,15.0,15.0,50,0.00,,,0.00,VWS V15.00,2013-06-23 03:20:00,
2013-06-22 22:24:00,86.2,68.2,29.84,SSW,206,0.0,17.0,55,0.00,,,0.00,VWS V13.01,2013-06-23 03:24:00,
2013-06-22 22:29:00,85.9,68.4,29.84,SSE,165,6.0,17.0,56,0.00,,,0.00,VWS V13.01,2013-06-23 03:29:00,
2013-06-22 22:30:00,88.2,67.8,29.82,SSW,206,0.0,15.0,51,0.00,,,0.00,VWS V15.00,2013-06-23 03:30:00,
2013-06-22 22:34:00,85.7,68.2,29.86,SSW,199,4.0,18.0,56,0.00,,,0.00,VWS V13.01,2013-06-23 03:34:00,
2013-06-22 22:39:00,85.6,68.6,29.86,SW,229,6.0,18.0,57,0.00,,,0.00,VWS V13.01,2013-06-23 03:39:00,
2013-06-22 22:40:00,87.8,68.0,29.82,SW,217,6.0,15.0,52,0.00,,,0.00,VWS V15.00,2013-06-23 03:40:00,
2013-06-22 22:44:00,85.3,68.9,29.86,SE,144,11.0,12.0,58,0.00,,,0.00,VWS V13.01,2013-06-23 03:44:00,
2013-06-22 22:49:00,85.1,68.7,29.86,South,172,10.0,15.0,58,0.00,,,0.00,VWS V13.01,2013-06-23 03:49:00,
2013-06-22 22:50:00,87.4,68.2,29.83,SSW,208,6.0,17.0,53,0.00,,,0.00,VWS V15.00,2013-06-23 03:50:00,
2013-06-22 22:54:00,84.9,69.0,29.86,SSE,159,8.0,18.0,59,0.00,,,0.00,VWS V13.01,2013-06-23 03:54:00,
2013-06-22 22:59:00,84.7,69.3,29.86,South,182,6.0,18.0,60,0.00,,,0.00,VWS V13.01,2013-06-23 03:59:00,
2013-06-22 23:00:00,87.1,67.9,29.83,South,182,4.0,14.0,53,0.00,,,0.00,VWS V15.00,2013-06-23 04:00:00,
2013-06-22 23:01:00,84.7,69.3,29.86,South,187,8.0,18.0,60,0.00,,,0.00,VWS V13.01,2013-06-23 04:01:00,
2013-06-22 23:02:00,84.6,69.2,29.86,SSW,209,4.0,4.0,60,0.00,,,0.00,VWS V13.01,2013-06-23 04:02:00,
2013-06-22 23:07:00,84.4,69.5,29.86,South,183,0.0,14.0,61,0.00,,,0.00,VWS V13.01,2013-06-23 04:07:00,
2013-06-22 23:10:00,86.7,68.1,29.83,SSW,211,7.0,15.0,54,0.00,,,0.00,VWS V15.00,2013-06-23 04:10:00,
2013-06-22 23:12:00,84.2,69.3,29.86,SSE,161,0.0,10.0,61,0.00,,,0.00,VWS V13.01,2013-06-23 04:12:00,
2013-06-22 23:17:00,84.0,69.6,29.86,South,173,3.0,12.0,62,0.00,,,0.00,VWS V13.01,2013-06-23 04:17:00,
2013-06-22 23:20:00,86.3,68.2,29.84,South,189,17.0,20.0,55,0.00,,,0.00,VWS V15.00,2013-06-23 04:20:00,
2013-06-22 23:22:00,83.8,69.9,29.86,South,178,0.0,5.0,63,0.00,,,0.00,VWS V13.01,2013-06-23 04:22:00,
2013-06-22 23:27:00,83.7,70.2,29.86,SSW,197,0.0,19.0,64,0.00,,,0.00,VWS V13.01,2013-06-23 04:27:00,
2013-06-22 23:30:00,85.9,68.4,29.86,SSW,211,11.0,17.0,56,0.00,,,0.00,VWS V15.00,2013-06-23 04:30:00,
2013-06-22 23:32:00,83.5,70.1,29.87,SSW,201,5.0,12.0,64,0.00,,,0.00,VWS V13.01,2013-06-23 04:32:00,
2013-06-22 23:37:00,83.4,70.4,29.87,South,183,0.0,12.0,65,0.00,,,0.00,VWS V13.01,2013-06-23 04:37:00,
2013-06-22 23:40:00,85.5,68.5,29.86,South,182,6.0,18.0,57,0.00,,,0.00,VWS V15.00,2013-06-23 04:40:00,
2013-06-22 23:42:00,83.3,70.3,29.87,South,175,8.0,8.0,65,0.00,,,0.00,VWS V13.01,2013-06-23 04:42:00,
2013-06-22 23:47:00,83.1,70.1,29.87,SSW,195,7.0,12.0,65,0.00,,,0.00,VWS V13.01,2013-06-23 04:47:00,
2013-06-22 23:50:00,85.1,69.2,29.86,South,175,13.0,15.0,59,0.00,,,0.00,VWS V15.00,2013-06-23 04:50:00,
2013-06-22 23:52:00,82.9,69.9,29.87,SSW,195,0.0,4.0,65,0.00,,,0.00,VWS V13.01,2013-06-23 04:52:00,
2013-06-22 23:57:00,82.7,70.2,29.87,South,189,0.0,12.0,66,0.00,,,0.00,VWS V13.01,2013-06-23 04:57:00,